Weather History for McComb, MS

Change the Weather History Date:

Wednesday, October 2, 2013

  Actual Average Record
Temperature  
Mean Temperature 78 °F -  
Max Temperature 84 °F 84 °F 93 °F (1952)
Min Temperature 72 °F 55 °F 40 °F (1984)
Cooling Degree Days 13    
Growing Degree Days 28 (Base 50)    
Moisture  
Dew Point 71 °F    
Average Humidity 84    
Maximum Humidity 97    
Minimum Humidity 61    
Precipitation  
Precipitation 0.06 in - - ()
Sea Level Pressure  
Sea Level Pressure 30.03 in    
Wind  
Wind Speed 2 mph (East)    
Max Wind Speed 7 mph    
Max Gust Speed -    
Visibility 10 miles    
Events Rain    
Averages and records for this station are not official NWS values.
T = Trace of Precipitation, MM = Missing Value Source: NWS Daily Summary

Daily Weather History Graph

Daily Weather History Graph

Search for Another Location

Airport:

Trip Planner

Search our weather history database for the weather conditions in past years. The results will help you decide how hot, cold, wet, or windy it might be!

Date:

Astronomy

Oct. 02, 2013 Rise Set
Actual Time 6:56 AM CDT 6:45 PM CDT
Civil Twilight 6:32 AM CDT 7:09 PM CDT
Nautical Twilight 6:04 AM CDT 7:37 PM CDT
Astronomical Twilight 5:35 AM CDT 8:05 PM CDT
Moon 4:37 AM CDT (10/2) 5:15 PM CDT (10/2)
Length of Visible Light 12h 37m
Length of Day
11h 49m
Waning Crescent, 6% of the Moon is Illuminated
Oct 2
Waning Crescent
Oct 4
New
Oct 11
First Quarter
Oct 18
Full
Oct 26
Last Quarter

Hourly Weather History & Observations

Time (CDT) Temp. Heat Index Dew Point Humidity Pressure Visibility Wind Dir Wind Speed Gust Speed Precip Events Conditions
12:53 AM 72.0 °F - 69.1 °F 91% 30.03 in 10.0 mi Calm Calm - 0.00 in   Scattered Clouds
1:53 AM 72.0 °F - 70.0 °F 93% 30.03 in 10.0 mi Calm Calm - 0.00 in Rain Light Rain
2:53 AM 73.0 °F - 70.0 °F 90% 30.01 in 10.0 mi Calm Calm - 0.00 in   Clear
3:53 AM 72.0 °F - 70.0 °F 93% 30.00 in 10.0 mi Calm Calm - N/A   Clear
4:53 AM 72.0 °F - 69.1 °F 91% 30.01 in 10.0 mi Calm Calm - N/A   Overcast
5:53 AM 72.0 °F - 69.1 °F 91% 30.02 in 10.0 mi Calm Calm - N/A   Partly Cloudy
6:53 AM 72.0 °F - 69.1 °F 91% 30.02 in 10.0 mi NE 3.5 mph - N/A   Clear
7:53 AM 72.0 °F - 70.0 °F 93% 30.05 in 9.0 mi Calm Calm - N/A   Partly Cloudy
8:53 AM 73.0 °F - 70.0 °F 90% 30.06 in 9.0 mi NE 3.5 mph - N/A   Partly Cloudy
9:53 AM 75.0 °F - 71.1 °F 87% 30.06 in 10.0 mi Calm Calm - N/A   Mostly Cloudy
10:17 AM 75.2 °F - 71.6 °F 89% 30.08 in 10.0 mi Variable 3.5 mph - N/A   Partly Cloudy
10:41 AM 77.0 °F - 71.6 °F 83% 30.07 in 10.0 mi Calm Calm - N/A   Mostly Cloudy
10:53 AM 77.0 °F - 72.0 °F 84% 30.06 in 10.0 mi NE 3.5 mph - N/A   Mostly Cloudy
11:11 AM 78.8 °F - 71.6 °F 78% 30.07 in 10.0 mi Variable 3.5 mph - N/A   Scattered Clouds
11:23 AM 78.8 °F - 71.6 °F 78% 30.07 in 10.0 mi East 4.6 mph - N/A   Mostly Cloudy
11:53 AM 80.1 °F 83.8 °F 72.0 °F 76% 30.06 in 10.0 mi Variable 6.9 mph - N/A   Overcast
12:05 PM 80.6 °F 84.6 °F 71.6 °F 74% 30.07 in 10.0 mi Variable 5.8 mph - N/A   Overcast
12:37 PM 80.6 °F 84.6 °F 71.6 °F 74% 30.06 in 10.0 mi Variable 3.5 mph - N/A   Mostly Cloudy
12:45 PM 80.6 °F 84.6 °F 71.6 °F 74% 30.06 in 10.0 mi Variable 5.8 mph - N/A   Mostly Cloudy
12:53 PM 80.1 °F 83.8 °F 72.0 °F 76% 30.04 in 10.0 mi East 6.9 mph - N/A   Mostly Cloudy
1:07 PM 80.6 °F 84.6 °F 71.6 °F 74% 30.05 in 10.0 mi ESE 6.9 mph - N/A   Mostly Cloudy
1:53 PM 82.0 °F 86.7 °F 72.0 °F 71% 30.00 in 10.0 mi Variable 4.6 mph - N/A   Mostly Cloudy
2:53 PM 82.9 °F 86.5 °F 69.1 °F 63% 29.98 in 10.0 mi ESE 4.6 mph - N/A   Mostly Cloudy
3:53 PM 84.0 °F 87.8 °F 69.1 °F 61% 29.97 in 10.0 mi East 5.8 mph - N/A   Partly Cloudy
4:53 PM 82.9 °F 87.5 °F 71.1 °F 67% 29.96 in 10.0 mi East 6.9 mph - N/A   Clear
5:53 PM 81.0 °F 84.9 °F 71.1 °F 72% 29.98 in 10.0 mi East 4.6 mph - N/A   Mostly Cloudy
6:53 PM 78.1 °F - 72.0 °F 81% 30.00 in 10.0 mi Calm Calm - N/A   Clear
7:53 PM 75.0 °F - 72.0 °F 90% 30.00 in 10.0 mi Calm Calm - 0.06 in   Mostly Cloudy
8:53 PM 73.9 °F - 73.0 °F 97% 30.01 in 9.0 mi Calm Calm - N/A   Partly Cloudy
9:53 PM 73.0 °F - 71.1 °F 93% 30.02 in 10.0 mi SE 3.5 mph - N/A   Partly Cloudy
10:23 PM 73.4 °F - 71.6 °F 94% 30.04 in 10.0 mi Calm Calm - N/A   Mostly Cloudy
10:48 PM 73.4 °F - 71.6 °F 94% 30.04 in 10.0 mi Calm Calm - N/A   Partly Cloudy
10:53 PM 73.0 °F - 71.1 °F 93% 30.03 in 10.0 mi Calm Calm - N/A   Partly Cloudy
11:06 PM 73.4 °F - 71.6 °F 94% 30.04 in 10.0 mi Calm Calm - N/A   Mostly Cloudy
11:17 PM 73.4 °F - 69.8 °F 88% 30.04 in 10.0 mi Calm Calm - N/A   Scattered Clouds
11:53 PM 72.0 °F - 70.0 °F 93% 30.02 in 10.0 mi SE 3.5 mph - N/A   Partly Cloudy